Theta_e
321 324 324 323 321 321 320 320 320 320 320 320 320 321 322 323 324 322 321 321 322 317 310 310 310 312 311 314 316 316 318 318 318 318 318 317 317 317 317 316 315 316 316
322 322 321 320 321 320 320 320 319 319 320 320 320 321 322 322 322 323 323 322 322 321 316 310 311 313 315 317 316 315 316 316 316 315 317 317 317 316 317 318 318 318 317
324 322 321 322 319 319 320 320 320 320 319 320 320 321 321 321 321 322 322 322 322 321 320 320 313 314 315 316 316 316 317 317 317 318 318 317 317 317 318 318 318 318 319
321 322 322 322 322 321 321 319 319 320 320 320 321 321 320 320 320 321 322 322 321 320 320 320 320 319 320 319 320 320 319 319 319 319 318 319 318 318 318 318 318 319 319
322 322 323 323 322 322 321 320 320 320 320 320 320 319 321 321 320 320 320 320 320 319 319 318 319 319 319 319 320 320 320 320 320 320 319 318 319 319 319 319 319 319 319
319 321 321 321 322 321 321 322 321 321 321 320 320 320 321 320 319 319 319 319 319 319 319 319 319 319 319 319 319 319 319 319 319 319 319 319 318 318 318 319 319 319 319
316 316 315 318 319 318 319 319 319 319 319 320 320 320 320 319 319 319 320 319 319 319 318 318 318 318 319 319 319 319 318 319 319 318 318 318 319 318 318 318 318 318 318
308 309 307 311 316 315 314 315 316 317 316 316 316 316 316 316 317 318 318 318 316 316 316 317 317 316 316 316 316 316 317 317 317 317 317 317 317 317 316 316 316 316 316
299 300 303 306 306 304 306 308 311 312 313 313 312 311 311 312 313 315 315 313 314 313 314 314 314 314 314 315 315 314 314 314 314 314 315 315 313 313 313 313 311 308 309
303 303 304 303 301 302 301 301 300 301 303 302 302 302 301 303 304 305 305 306 307 307 306 304 305 307 308 309 310 310 310 310 309 308 307 306 303 302 301 301 302 302 302
300 299 300 299 299 299 298 297 296 298 298 298 298 297 297 298 298 300 302 302 300 301 301 301 301 300 301 302 303 302 303 302 298 297 296 296 296 296 295 295 295 297 296
293 292 294 296 295 295 296 294 294 295 295 292 292 293 293 293 294 294 295 295 295 296 295 294 294 294 294 295 295 293 293 293 293 293 293 292 291 291 290 289 290 290 290
293 292 292 292 292 290 290 288 289 289 290 289 289 290 291 291 291 292 292 292 292 292 291 290 290 290 290 290 290 290 290 290 290 290 289 289 288 288 287 287 287 287 287
288 290 290 289 288 288 289 290 290 289 289 289 289 290 290 290 290 290 290 290 290 290 289 289 289 289 289 289 289 289 289 288 288 287 286 286 285 286 286 286 285 284 282
287 285 285 287 288 289 289 287 289 290 290 289 288 289 288 289 289 288 289 289 289 288 288 288 288 288 287 287 287 287 286 285 284 283 282 281 280 279 278 277 278 278 278
288 288 287 285 284 284 286 287 287 287 287 288 288 288 288 287 287 287 287 287 287 287 287 286 285 284 283 282 281 280 280 279 278 277 277 277 276 276 276 276 277 276 276
288 286 287 285 284 283 283 282 283 285 285 286 286 286 286 286 286 286 286 285 285 285 285 283 280 278 277 276 276 276 276 276 276 275 275 275 275 275 275 275 275 275 275
287 287 287 287 286 286 286 285 285 284 283 284 284 285 285 285 284 284 284 283 283 281 279 277 276 275 275 274 274 274 274 274 274 274 274 274 274 274 274 274 273 273 274
285 285 285 285 285 284 284 283 283 282 281 280 279 279 278 278 278 278 278 278 277 276 275 275 274 274 273 273 273 273 273 274 273 273 273 273 272 272 272 272 273 272 272
282 282 282 281 281 281 280 280 278 278 277 277 277 277 276 276 276 276 276 276 275 274 273 273 273 273 273 272 273 273 272 272 272 271 272 272 272 271 271 271 271 272 272
279 279 279 279 279 278 278 277 277 276 276 275 275 275 275 274 275 275 275 274 274 273 273 272 272 272 271 271 271 271 271 271 271 271 271 271 271 270 270 270 270 270 270
277 277 277 277 276 276 276 275 275 274 274 274 274 274 274 273 273 273 273 273 272 272 272 271 271 271 271 271 271 270 270 270 270 270 270 270 270 269 269 269 269 269 269
276 276 275 275 275 275 274 274 273 273 272 272 272 272 272 272 272 271 271 271 271 271 271 270 270 270 270 270 270 270 270 269 269 269 269 269 268 268 267 268 268 268 268
274 274 274 273 273 273 272 272 272 272 271 271 270 270 271 271 270 270 270 270 270 270 270 269 269 269 269 269 269 269 269 269 269 269 269 268 268 267 267 267 267 266 266
272 272 272 272 272 271 271 271 270 270 269 269 269 269 269 269 269 269 269 269 269 269 269 268 268 268 268 268 268 268 268 268 268 268 268 268 268 268 267 267 267 266 266
272 271 271 271 270 270 270 269 269 269 269 269 269 269 269 269 269 269 269 268 268 268 268 268 268 268 267 267 268 267 267 267 267 267 267 267 267 267 266 265 265 265 265
Wind_Speed
21 20 17 15 16 18 15 14 15 14 14 14 17 20 22 21 28 28 34 36 39 42 39 36 37 38 44 44 43 38 37 38 41 36 42 34 39 32 35 42 46 48 46
21 21 19 17 15 13 14 14 13 12 12 15 16 19 20 20 23 29 31 32 29 32 45 44 45 45 45 45 46 47 48 48 49 55 50 50 49 46 50 44 42 43 45
17 19 17 15 14 14 14 13 12 10 10 12 16 17 16 16 19 22 27 27 25 26 24 32 50 48 47 51 49 49 52 50 53 54 57 48 44 42 40 43 45 47 44
17 19 18 14 10 9 8 9 10 11 10 8 9 12 12 12 14 16 21 23 23 23 25 26 28 39 41 40 40 42 43 40 39 38 41 40 41 47 44 45 47 45 46
17 17 15 13 12 10 10 12 11 10 10 9 9 10 9 15 21 21 22 23 23 25 27 29 32 33 33 34 33 35 34 35 36 38 41 44 43 42 43 43 44 47 47
16 15 13 12 10 10 10 10 11 12 12 14 15 16 19 22 23 24 25 27 29 30 31 31 31 31 34 36 38 39 43 45 43 43 43 43 47 52 48 45 45 43 47
15 14 12 10 8 7 9 10 11 12 12 12 13 14 17 21 22 23 24 26 27 30 35 35 34 35 37 39 41 43 41 41 43 51 52 46 43 41 43 47 48 47 49
13 10 9 11 5 4 5 6 8 9 8 9 10 11 12 14 18 21 23 22 20 22 25 28 31 37 40 41 40 40 39 43 48 48 54 62 66 67 66 61 55 54 54
15 13 11 7 2 3 5 6 8 10 9 8 7 7 10 13 17 21 22 18 21 22 24 25 27 29 31 35 35 36 37 38 39 39 41 47 49 52 55 54 50 48 48
12 10 7 3 6 6 5 6 6 6 6 5 3 3 4 7 7 7 6 8 11 13 15 15 16 19 24 27 27 25 27 29 31 31 29 30 29 29 27 27 26 24 21
9 9 9 9 9 9 8 9 9 10 10 9 7 7 9 9 9 4 3 3 2 3 5 8 11 14 15 14 14 13 12 12 12 13 13 13 12 11 11 11 8 7 9
12 13 14 14 13 12 11 11 12 13 14 15 15 16 17 20 20 21 19 16 13 10 12 14 15 15 16 15 14 16 12 8 7 7 7 8 10 12 13 14 13 13 9
13 15 16 16 16 15 15 13 15 16 17 17 17 18 20 19 20 22 23 21 21 20 20 19 17 16 16 18 17 14 12 12 11 9 10 10 9 9 8 8 8 8 6
15 17 17 17 17 18 17 17 18 18 17 17 17 18 17 16 16 16 16 15 15 16 15 13 13 13 14 13 12 12 13 12 11 11 10 9 9 9 9 8 8 8 7
15 15 15 17 20 20 20 20 20 19 17 16 16 14 12 14 14 12 12 12 12 10 8 8 8 9 9 10 10 10 9 9 9 9 8 8 8 9 10 10 9 8 7
14 14 14 13 12 12 14 16 16 15 12 12 12 12 12 11 9 8 9 8 6 6 5 7 9 10 11 10 10 10 10 10 10 10 10 10 9 10 10 10 9 9 9
13 13 13 12 11 10 10 8 9 11 11 10 10 10 9 8 7 7 7 6 5 6 7 9 9 10 10 9 10 10 10 10 10 10 9 9 9 9 10 9 9 8 8
10 10 9 9 9 8 8 7 7 6 6 8 8 9 8 7 6 6 6 7 7 6 7 8 9 9 9 9 9 9 9 9 9 9 8 9 9 9 8 9 9 8 8
7 6 6 6 6 5 5 5 5 5 6 6 7 7 7 6 5 5 4 4 6 7 8 8 8 7 8 8 8 9 9 9 8 8 8 8 8 8 8 8 8 11 9
6 6 5 5 5 5 5 5 5 5 5 5 4 4 5 5 4 5 5 6 6 6 7 6 6 6 6 7 8 8 8 8 8 7 8 8 8 7 8 8 8 8 8
4 3 3 3 3 4 4 4 4 4 4 4 4 4 4 5 6 6 5 5 4 4 4 5 5 5 6 6 6 6 7 7 7 7 7 8 8 7 7 7 7 7 8
3 3 3 3 3 3 3 3 3 3 3 3 4 4 4 4 4 4 4 4 4 3 4 4 4 5 5 5 5 6 6 6 6 7 7 7 7 7 7 7 7 7 8
2 2 2 2 2 2 2 2 3 3 2 2 2 3 3 3 3 3 4 4 4 5 4 4 5 5 5 6 6 6 6 6 7 7 7 7 7 7 7 7 7 7 8
1 2 1 1 1 2 2 2 1 1 1 2 3 3 4 4 4 5 6 6 6 6 6 6 6 6 6 6 6 6 6 7 7 7 7 7 7 7 7 7 7 8 8
1 0 0 0 0 1 1 1 1 2 3 3 4 4 5 5 6 7 7 8 7 7 7 7 7 7 8 7 7 7 7 7 8 8 8 8 8 8 8 7 8 7 9
1 1 1 2 1 1 1 2 3 4 5 6 7 7 7 7 8 8 8 8 8 8 8 8 8 8 8 8 8 8 8 8 8 8 8 8 8 8 8 8 8 7 8
Wind_Direction
178 171 176 180 194 200 200 201 203 209 211 204 203 215 211 219 229 212 216 228 234 230 230 236 237 234 238 246 252 255 253 252 255 257 257 258 264 263 266 262 266 275 275
170 173 175 173 174 186 199 203 203 205 203 201 197 205 210 220 225 218 224 235 239 239 231 233 234 238 240 244 248 251 253 256 263 268 264 259 258 265 265 266 269 273 277
157 167 169 172 173 180 186 193 208 217 217 208 206 209 216 217 216 223 232 240 244 239 240 246 236 238 244 246 252 254 259 261 259 265 266 257 262 261 260 261 265 270 269
160 157 158 158 160 162 180 188 192 201 212 223 215 214 215 217 222 227 232 235 242 245 247 254 249 241 247 249 250 253 256 258 259 256 254 253 256 261 264 262 265 266 265
164 161 164 171 175 181 182 189 191 194 199 203 216 217 212 217 221 224 231 249 256 257 260 263 263 262 259 258 254 257 254 254 253 250 251 260 262 262 260 263 263 267 267
151 157 160 170 176 185 191 197 201 208 213 214 215 208 212 226 232 240 246 249 253 258 265 269 270 268 266 266 267 266 264 263 262 260 258 256 262 269 267 264 265 268 269
123 128 128 145 159 173 188 195 195 198 203 212 218 223 228 237 244 248 253 255 258 259 258 258 260 263 262 260 264 268 272 273 270 265 259 259 262 261 260 264 263 264 267
112 120 107 111 136 182 184 186 201 210 212 211 215 222 227 239 249 254 257 261 260 258 259 261 261 261 261 264 265 265 266 265 267 268 262 261 263 265 264 262 262 264 266
83 77 71 72 129 128 167 174 189 200 209 220 231 240 252 259 266 268 272 271 266 265 268 270 271 273 273 271 271 269 265 265 265 264 265 266 268 268 269 269 270 272 273
67 70 90 121 118 119 111 118 121 136 148 164 186 227 269 291 297 290 273 254 252 255 264 279 292 291 289 288 288 284 276 272 266 265 266 270 276 284 290 292 289 284 275
72 75 91 101 96 101 102 105 107 106 104 101 94 85 73 62 56 55 79 80 58 12 351 355 354 348 336 325 317 314 299 273 276 283 289 292 301 316 336 348 345 301 268
76 79 83 87 88 90 92 93 93 91 89 84 80 77 74 70 70 71 71 72 70 67 66 61 54 42 38 40 43 51 48 35 14 358 358 21 28 29 30 32 35 39 38
90 87 82 86 91 92 94 88 84 84 84 80 79 77 74 71 65 63 63 63 65 66 66 65 64 62 61 63 66 71 74 72 68 63 60 57 53 47 39 32 31 31 28
88 86 90 91 89 85 85 89 90 84 84 86 81 78 77 78 76 71 66 66 68 71 74 73 71 69 67 72 77 73 67 64 60 57 50 38 26 18 11 13 16 16 18
94 92 88 83 81 83 84 81 80 82 84 83 81 84 78 72 65 64 64 64 65 66 72 73 68 65 58 54 47 46 46 43 41 42 38 31 23 20 19 20 24 27 33
89 89 91 87 84 78 75 77 72 70 71 73 74 72 69 74 70 65 59 52 51 36 28 41 36 34 34 33 35 33 31 32 34 32 30 29 22 22 19 18 23 25 20
95 90 85 88 87 86 86 78 55 57 55 53 54 56 56 52 55 49 49 43 7 348 1 18 28 35 38 38 38 37 34 33 31 29 29 26 24 19 22 15 18 17 19
84 85 87 84 79 75 72 68 65 62 38 21 19 12 9 9 16 14 358 346 347 358 23 33 38 37 38 38 36 37 32 28 26 25 22 20 23 17 15 14 10 11 8
79 80 77 74 71 68 61 50 40 26 18 15 10 7 11 15 26 10 5 16 34 36 39 39 41 36 33 31 28 26 23 19 16 15 12 13 11 11 5 5 1 353 14
61 64 66 61 56 51 44 36 25 22 20 14 6 14 29 26 26 22 28 37 41 43 40 35 30 26 23 22 15 15 11 5 4 5 1 359 360 1 356 356 353 353 347
47 48 48 45 43 36 35 35 34 28 32 29 24 25 32 35 30 27 26 29 31 26 21 19 9 3 4 1 2 358 354 352 349 350 350 349 348 351 347 343 343 342 337
49 39 35 32 38 41 55 57 63 59 47 32 18 16 17 23 26 20 12 4 4 4 358 353 349 341 338 339 343 347 342 337 337 337 337 337 340 334 337 334 337 338 336
16 23 18 13 19 40 55 61 66 62 40 18 11 359 0 2 3 357 340 335 331 328 326 324 322 322 325 326 328 329 328 326 328 329 328 328 330 325 331 329 330 335 329
48 48 69 77 97 82 76 66 24 345 348 343 332 327 326 328 328 323 317 313 311 311 311 308 308 310 314 317 319 320 321 324 323 324 325 323 321 319 320 322 325 324 330
44 40 124 88 91 25 25 2 321 301 295 301 305 307 308 312 312 311 310 306 303 301 301 299 301 305 307 310 312 314 320 319 321 322 321 320 319 318 318 320 316 323 320
270 266 277 283 293 292 293 294 291 293 297 297 297 294 296 300 302 306 306 301 299 298 296 297 298 300 302 304 306 310 310 312 317 320 320 319 319 316 315 312 314 320 316